PCM7684 KONT-KSAN

Flight info

Callsign PCM7684
Flight time 0h 36m
Altitude 7000
Route PDZ V186 HAILE
Aircraft C208/L-SDF/C

Departure

Time 2026-05-04 21:22
Airport Ontario International Airport (KONT)

Arrival

Time 2026-05-04 21:59
Airport San Diego International Airport (KSAN)
Time Latitude Longitude Altitude Speed Heading
2026-05-04 21:09 34.05936 -117.62326 944 ft 0 kts 46°
2026-05-04 21:17 34.05925 -117.62308 944 ft 9 kts 172°
2026-05-04 21:17 34.05871 -117.62253 944 ft 17 kts 88°
2026-05-04 21:17 34.05797 -117.62127 945 ft 25 kts 91°
2026-05-04 21:18 34.05797 -117.61879 944 ft 32 kts 89°
2026-05-04 21:18 34.05797 -117.61585 943 ft 37 kts 91°
2026-05-04 21:18 34.05797 -117.61240 942 ft 45 kts 90°
2026-05-04 21:18 34.05798 -117.60885 943 ft 36 kts 90°
2026-05-04 21:19 34.05798 -117.60546 945 ft 44 kts 89°
2026-05-04 21:19 34.05798 -117.60161 944 ft 44 kts 90°
2026-05-04 21:19 34.05710 -117.59993 944 ft 29 kts 179°
2026-05-04 21:19 34.05576 -117.59981 943 ft 0 kts 155°
2026-05-04 21:21 34.05522 -117.59938 943 ft 16 kts 158°
2026-05-04 21:21 34.05497 -117.59963 943 ft 0 kts 268°
2026-05-04 21:21 34.05497 -117.59996 943 ft 21 kts 270°
2026-05-04 21:21 34.05498 -117.60386 943 ft 70 kts 270°
2026-05-04 21:22 34.05506 -117.61093 1046 ft 91 kts 269°
2026-05-04 21:22 34.05491 -117.61887 1251 ft 96 kts 260°
2026-05-04 21:22 34.05378 -117.62705 1466 ft 101 kts 252°
2026-05-04 21:22 34.04899 -117.63335 1645 ft 111 kts 210°
2026-05-04 21:23 34.04103 -117.63392 1830 ft 125 kts 162°
2026-05-04 21:23 34.03368 -117.62773 2035 ft 131 kts 148°
2026-05-04 21:23 34.02619 -117.62125 2242 ft 133 kts 149°
2026-05-04 21:23 34.01873 -117.61485 2496 ft 131 kts 149°
2026-05-04 21:24 34.01132 -117.60856 2740 ft 129 kts 149°
2026-05-04 21:24 34.00406 -117.60239 2987 ft 128 kts 149°
2026-05-04 21:24 33.99675 -117.59622 3233 ft 128 kts 149°
2026-05-04 21:24 33.98940 -117.59003 3476 ft 128 kts 149°
2026-05-04 21:25 33.98210 -117.58388 3725 ft 127 kts 150°
2026-05-04 21:25 33.97483 -117.57777 3971 ft 127 kts 149°
2026-05-04 21:25 33.96762 -117.57171 4217 ft 126 kts 150°
2026-05-04 21:25 33.96043 -117.56565 4465 ft 126 kts 149°
2026-05-04 21:26 33.95327 -117.55963 4712 ft 126 kts 150°
2026-05-04 21:26 33.94610 -117.55361 4958 ft 125 kts 149°
2026-05-04 21:26 33.93898 -117.54762 5206 ft 125 kts 150°
2026-05-04 21:26 33.93192 -117.54169 5451 ft 125 kts 150°
2026-05-04 21:27 33.92483 -117.53573 5698 ft 124 kts 150°
2026-05-04 21:27 33.91771 -117.52974 5946 ft 125 kts 150°
2026-05-04 21:27 33.91058 -117.52376 6196 ft 125 kts 150°
2026-05-04 21:27 33.90346 -117.51779 6446 ft 125 kts 150°
2026-05-04 21:28 33.89635 -117.51181 6690 ft 124 kts 150°
2026-05-04 21:28 33.88927 -117.50584 6938 ft 123 kts 150°
2026-05-04 21:28 33.88193 -117.49974 7019 ft 137 kts 150°
2026-05-04 21:28 33.87366 -117.49290 7024 ft 150 kts 149°
2026-05-04 21:29 33.86503 -117.48563 7024 ft 152 kts 149°
2026-05-04 21:29 33.85601 -117.47808 7032 ft 162 kts 149°
2026-05-04 21:29 33.84660 -117.47024 7031 ft 167 kts 149°
2026-05-04 21:29 33.83702 -117.46218 7033 ft 169 kts 149°
2026-05-04 21:30 33.82731 -117.45404 7031 ft 170 kts 149°
2026-05-04 21:30 33.81756 -117.44589 7023 ft 171 kts 149°
2026-05-04 21:30 33.80777 -117.43767 7003 ft 172 kts 149°
2026-05-04 21:30 33.79794 -117.42944 7013 ft 172 kts 149°
2026-05-04 21:31 33.77823 -117.41297 7002 ft 172 kts 149°
2026-05-04 21:31 33.76841 -117.40474 7008 ft 172 kts 149°
2026-05-04 21:31 33.75860 -117.39652 7008 ft 172 kts 149°
2026-05-04 21:32 33.74875 -117.38829 7009 ft 172 kts 149°
2026-05-04 21:32 33.73901 -117.38018 7008 ft 173 kts 149°
2026-05-04 21:32 33.72915 -117.37192 7006 ft 172 kts 149°
2026-05-04 21:32 33.71931 -117.36370 7006 ft 172 kts 149°
2026-05-04 21:33 33.70945 -117.35549 7002 ft 172 kts 149°
2026-05-04 21:33 33.69964 -117.34728 7002 ft 172 kts 149°
2026-05-04 21:33 33.68984 -117.33910 7005 ft 171 kts 149°
2026-05-04 21:33 33.68003 -117.33096 7004 ft 171 kts 149°
2026-05-04 21:34 33.67017 -117.32279 7006 ft 173 kts 149°
2026-05-04 21:34 33.66034 -117.31450 7006 ft 173 kts 148°
2026-05-04 21:34 33.65054 -117.30630 7005 ft 171 kts 149°
2026-05-04 21:34 33.64076 -117.29817 7003 ft 170 kts 149°
2026-05-04 21:35 33.63112 -117.29012 7000 ft 169 kts 149°
2026-05-04 21:35 33.62155 -117.28219 7004 ft 170 kts 149°
2026-05-04 21:35 33.61186 -117.27411 7005 ft 170 kts 149°
2026-05-04 21:35 33.60219 -117.26605 7016 ft 168 kts 149°
2026-05-04 21:36 33.59249 -117.25799 7013 ft 170 kts 149°
2026-05-04 21:36 33.58277 -117.24994 7015 ft 170 kts 149°
2026-05-04 21:36 33.57307 -117.24188 7015 ft 170 kts 149°
2026-05-04 21:36 33.56336 -117.23378 7014 ft 170 kts 149°
2026-05-04 21:37 33.55362 -117.22568 7018 ft 172 kts 149°
2026-05-04 21:37 33.54378 -117.21752 7017 ft 171 kts 149°
2026-05-04 21:37 33.53403 -117.20941 7017 ft 171 kts 149°
2026-05-04 21:37 33.52431 -117.20132 7017 ft 168 kts 149°
2026-05-04 21:38 33.51460 -117.19326 7017 ft 171 kts 149°
2026-05-04 21:38 33.50485 -117.18521 7012 ft 170 kts 148°
2026-05-04 21:38 33.49522 -117.17717 7014 ft 168 kts 149°
2026-05-04 21:38 33.48571 -117.16929 7015 ft 169 kts 149°
2026-05-04 21:39 33.47581 -117.16191 7014 ft 167 kts 162°
2026-05-04 21:39 33.46456 -117.15920 7015 ft 165 kts 175°
2026-05-04 21:39 33.45321 -117.15682 7016 ft 165 kts 173°
2026-05-04 21:39 33.44191 -117.15434 7019 ft 166 kts 174°
2026-05-04 21:40 33.43053 -117.15189 7017 ft 166 kts 174°
2026-05-04 21:40 33.41917 -117.14969 7018 ft 165 kts 175°
2026-05-04 21:40 33.40775 -117.14742 6901 ft 171 kts 174°
2026-05-04 21:40 33.39578 -117.14492 6722 ft 176 kts 174°
2026-05-04 21:41 33.38363 -117.14234 6565 ft 178 kts 173°
2026-05-04 21:41 33.37138 -117.13973 6396 ft 180 kts 174°
2026-05-04 21:41 33.35904 -117.13714 6224 ft 180 kts 173°
2026-05-04 21:41 33.34667 -117.13447 6052 ft 181 kts 173°
2026-05-04 21:42 33.33427 -117.13183 5879 ft 181 kts 173°
2026-05-04 21:42 33.32219 -117.12923 5695 ft 170 kts 173°
2026-05-04 21:42 33.31117 -117.12670 5499 ft 154 kts 173°
2026-05-04 21:42 33.30084 -117.12444 5299 ft 147 kts 174°
2026-05-04 21:43 33.29091 -117.12233 5102 ft 143 kts 174°
2026-05-04 21:43 33.28120 -117.12029 4958 ft 138 kts 174°
2026-05-04 21:43 33.27174 -117.11833 5041 ft 142 kts 174°
2026-05-04 21:43 33.26164 -117.11631 5041 ft 151 kts 174°
2026-05-04 21:44 33.25109 -117.11414 5041 ft 157 kts 174°
2026-05-04 21:44 33.24023 -117.11188 5034 ft 159 kts 174°
2026-05-04 21:44 33.22936 -117.10957 5017 ft 161 kts 174°
2026-05-04 21:44 33.21834 -117.10724 4983 ft 164 kts 174°
2026-05-04 21:45 33.20707 -117.10487 4979 ft 165 kts 173°
2026-05-04 21:45 33.19582 -117.10245 4980 ft 163 kts 173°
2026-05-04 21:45 33.18463 -117.10010 4980 ft 163 kts 173°
2026-05-04 21:45 33.17345 -117.09781 4980 ft 163 kts 174°
2026-05-04 21:46 33.16221 -117.09550 4978 ft 164 kts 174°
2026-05-04 21:46 33.15102 -117.09313 4977 ft 164 kts 174°
2026-05-04 21:46 33.13976 -117.09074 4976 ft 164 kts 174°
2026-05-04 21:46 33.12854 -117.08836 4974 ft 164 kts 174°
2026-05-04 21:47 33.11731 -117.08598 4972 ft 164 kts 174°
2026-05-04 21:47 33.10608 -117.08360 4971 ft 164 kts 174°
2026-05-04 21:47 33.09485 -117.08124 4970 ft 164 kts 174°
2026-05-04 21:47 33.08377 -117.07890 4970 ft 164 kts 174°
2026-05-04 21:48 33.07254 -117.07654 4973 ft 164 kts 174°
2026-05-04 21:48 33.06128 -117.07416 4973 ft 164 kts 174°
2026-05-04 21:48 33.05002 -117.07177 4970 ft 164 kts 174°
2026-05-04 21:48 33.03873 -117.06940 4970 ft 165 kts 174°
2026-05-04 21:49 33.02745 -117.06698 4967 ft 165 kts 174°
2026-05-04 21:49 33.01611 -117.06457 4807 ft 160 kts 173°
2026-05-04 21:49 33.00556 -117.06220 4608 ft 149 kts 173°
2026-05-04 21:49 32.99556 -117.06004 4378 ft 146 kts 174°
2026-05-04 21:50 32.98563 -117.05791 4145 ft 143 kts 174°
2026-05-04 21:50 32.97608 -117.05587 4031 ft 136 kts 174°
2026-05-04 21:50 32.96689 -117.05392 3935 ft 131 kts 174°
2026-05-04 21:50 32.95831 -117.05210 3949 ft 129 kts 175°
2026-05-04 21:51 32.94875 -117.05026 3966 ft 144 kts 175°
2026-05-04 21:51 32.93870 -117.04829 3962 ft 152 kts 174°
2026-05-04 21:51 32.92806 -117.04611 3962 ft 158 kts 174°
2026-05-04 21:51 32.91711 -117.04383 3959 ft 161 kts 174°
2026-05-04 21:52 32.90611 -117.04150 3960 ft 162 kts 174°
2026-05-04 21:52 32.89501 -117.03912 3874 ft 158 kts 173°
2026-05-04 21:52 32.88466 -117.03675 3708 ft 146 kts 173°
2026-05-04 21:52 32.87483 -117.03462 3537 ft 141 kts 174°
2026-05-04 21:53 32.86528 -117.03258 3373 ft 138 kts 173°
2026-05-04 21:53 32.85586 -117.03057 3208 ft 136 kts 174°
2026-05-04 21:53 32.84655 -117.02867 3051 ft 136 kts 174°
2026-05-04 21:53 32.83725 -117.02672 2979 ft 137 kts 174°
2026-05-04 21:54 32.82755 -117.02481 2992 ft 149 kts 174°
2026-05-04 21:54 32.81723 -117.02500 2995 ft 150 kts 200°
2026-05-04 21:54 32.80740 -117.02946 2992 ft 153 kts 204°
2026-05-04 21:54 32.79743 -117.03402 3000 ft 155 kts 204°
2026-05-04 21:55 32.78729 -117.03870 3002 ft 158 kts 204°
2026-05-04 21:55 32.77698 -117.04342 3000 ft 159 kts 204°
2026-05-04 21:55 32.76668 -117.04815 2997 ft 159 kts 204°
2026-05-04 21:55 32.75653 -117.05349 2952 ft 159 kts 213°
2026-05-04 21:56 32.74796 -117.06156 2953 ft 157 kts 227°
2026-05-04 21:56 32.74104 -117.07159 2941 ft 152 kts 237°
2026-05-04 21:56 32.73609 -117.08242 2879 ft 152 kts 247°
2026-05-04 21:56 32.73211 -117.09443 2572 ft 159 kts 251°
2026-05-04 21:57 32.72904 -117.10632 2321 ft 138 kts 256°
2026-05-04 21:57 32.72709 -117.11729 2061 ft 137 kts 261°
2026-05-04 21:57 32.72581 -117.12857 1748 ft 140 kts 266°
2026-05-04 21:57 32.72557 -117.14042 1316 ft 145 kts 273°
2026-05-04 21:58 32.72640 -117.15238 932 ft 143 kts 280°
2026-05-04 21:58 32.72774 -117.16337 542 ft 126 kts 279°
2026-05-04 21:58 32.72884 -117.16995 301 ft 123 kts 286°
2026-05-04 21:58 32.73165 -117.18176 26 ft 99 kts 287°
2026-05-04 21:59 32.73325 -117.18827 21 ft 60 kts 288°
2026-05-04 21:59 32.73389 -117.19075 24 ft 18 kts 313°
2026-05-04 21:59 32.73483 -117.19031 21 ft 17 kts 88°
2026-05-04 21:59 32.73438 -117.18836 21 ft 31 kts 106°
2026-05-04 22:00 32.73400 -117.18683 21 ft 17 kts 107°
2026-05-04 22:00 32.73363 -117.18525 21 ft 16 kts 107°
2026-05-04 22:00 32.73408 -117.18393 23 ft 14 kts 17°
2026-05-04 22:00 32.73467 -117.18413 21 ft 15 kts 322°
2026-05-04 22:01 32.73575 -117.18506 21 ft 24 kts 324°
2026-05-04 22:01 32.73711 -117.18621 21 ft 15 kts 323°
2026-05-04 22:01 32.73773 -117.18685 21 ft 7 kts 230°
2026-05-04 22:01 32.73749 -117.18715 21 ft 2 kts 96°
2026-05-04 22:02 32.73748 -117.18707 23 ft 0 kts 99°